Погода в Акротирях

Греция     36°21′23″N   25°23′36″E
темп.,
°C
ветер,
м/с
пор.,
м/с
влажн.,
%
обл.,
%
осадки,
мм/ч
давл.,
гПа
погр.,
м
26 июля, пн
пн2600:00+25ссз1013780 0.0 1011291
03:00+25ссз1014790 0.0 1011330
06:00+24ссз1012800 0.0 1011344
09:00+24с79800 0.0 1013389
12:00+24ссз88780 0.0 1014353
15:00+25ссз88770 0.0 1014324
18:00+25ссз89770 0.0 1013259
21:00+25ссз810740 0.0 1013280
27 июля, вт
вт2700:00+25зсз68750 0.0 1014177
03:00+25сз710760 0.0 1013218
06:00+25ссз810790 0.0 1013223
09:00+25с68780 0.0 1013203
12:00+25ссз47750 0.0 1014173
15:00+26с47750 0.0 1013165
18:00+26ссз810750 0.0 1012153
21:00+26ссз811730 0.0 1012195
28 июля, ср
ср2800:00+25зсз67770 0.0 1012121
03:00+26сз67750 0.0 1010103
06:00+25ссз45760 0.0 101072
09:00+25с35760 0.0 1010102
12:00+26с45740 0.0 1010100
15:00+27с35720 0.0 101093
18:00+26сз78750 0.0 1009136
21:00+26сз710760 0.0 1009139
29 июля, чт
чт2900:00+26ссз69750 0.0 1008113
03:00+26ссз69770 0.0 1007128
06:00+26с813740 0.0 1007185
09:00+26с712760 0.0 1008196
12:00+26с712710 0.0 1008176
15:00+27с813670 0.0 1008179
18:00+26ссз1115700 0.0 1007183
21:00+26ссз1217690 0.0 1006182
30 июля, пт
пт3000:00+26с1015710 0.0 1006182
03:00+26ссз1015710 0.0 1006197
06:00+26с1015690 0.0 1006188
09:00+26ссз1015720 0.0 1007201
12:00+27с914700 0.0 1007172
15:00+27ссз914700 0.0 1007151
18:00+27ссз1116660 0.0 1006160
21:00+27ссз1015670 0.0 1006142